Portada
METAR-TAF:

METAR-TAF

Aeroports :

Hōfu, Japó

latitud: 34-02N, longitud: 131-33E, altitud: 2 m

Observació

L'informe es va fer fa 6 hores i 54 minuts, a les 14:22 UTC
Vent 5 kt del Nord
Temperatura 6°C
Humitat 81%
Pressió 1017 hPa
Visibilitat 10 km o més
Escasses núvols a una alçada de 3000 ft
Cel ennuvolat a una alçada de 5000 ft

METAR: RJOF 221422Z 35005KT 9999 FEW030 BKN050 06/03 Q1017 RMK 1CU030 5SC050 A3003

Hora: 06:16 (21:16 UTC)


TAF: manca

Observacions i pronòstics meteorològics de més de 4000 aeroports (METAR i TAF).

Les estacions disponibles són els punts grocs i vermells al mapa.

Posi el ratolí al punt desitjat per veure el nom de l'estació.

Feu clic per veure les observacions i els pronòstics meteorològics.

Per canviar el mapa: feu clic els botons verds amb una creu de color negre per apropar; al botó verd amb un guió per allunyar la imatge; o en les fletxes verdes per a mapes adjacents.


METAR-TAF: